[[{"header":{"parameterUnit":"m.s-1","parameterCategory":1,"la1":30.2991,"la2":30.254,"lo1":-89.0895,"lo2":-89.0444,"dy":0.0017,"dx":0.0017,"nx":28,"ny":28,"refTime":"2026-02-03T09:00:00:Z","depth":0,"parameterNumber":2,"parameterNumberName":"U-component_of_WINDS"},"data":[0,0,0,0,0,0,0,0,0,0,0,0,0,0,0,0,0,0,0,0,0,0,0,0,0,0,0,0,0,0,0,0,0,0,0,0,0,0,0,0,0,0,0,0,0,0,0,0,0,0,0,0,0,0,0,0,0,0,2.3357,2.3358,0,2.3477,2.3478,2.3479,2.3456,2.3454,2.3451,2.3449,2.3571,2.3576,2.3581,0,0,0,0,0,0,0,0,0,0,0,0,0,2.3105,2.311,2.3357,2.3358,2.336,2.3477,2.3478,2.348,2.3456,2.3453,2.3451,2.3448,2.3569,2.3575,2.3582,0,0,0,0,0,0,0,0,0,0,0,0,0,2.3219,2.3112,2.3357,2.3362,2.3364,2.3476,2.3478,2.348,2.3457,2.3453,2.345,2.3447,2.3567,2.3575,2.3582,2.3696,0,0,2.3607,2.361,0,0,0,0,0,0,0,0,2.3212,2.3228,2.336,2.3362,2.3364,2.3448,2.3434,2.3553,2.3457,2.3421,2.3449,2.3445,2.3533,2.3543,2.3573,2.3702,2.3707,2.3607,2.3612,2.3615,2.3618,0,0,0,0,0,0,0,2.3205,2.3223,2.3404,2.3362,2.3364,2.3358,2.337,2.3456,2.3494,2.3424,2.3423,2.3437,2.3533,2.3565,2.3575,2.3709,2.3607,2.3614,2.3619,2.3622,2.3936,2.3939,0,0,0,0,0,0,2.3195,2.3216,2.34,2.3408,2.3279,2.3365,2.3379,2.3424,2.3493,2.35,2.344,2.3436,2.3553,2.3566,2.3579,2.3715,2.3615,2.3623,2.3627,2.3932,2.3936,2.394,0,0,0,0,0,0,2.319,2.3212,2.3396,2.3312,2.3335,2.3373,2.3424,2.3428,2.346,2.3505,2.3511,2.3466,2.3551,2.3568,2.3667,2.3719,2.3626,2.3634,2.3928,2.3933,2.3938,2.3989,0,0,0,0,0,0,2.3183,2.321,2.3254,2.3313,2.3339,2.3482,2.3427,2.3433,2.3474,2.347,2.3531,2.3538,2.355,2.3655,2.3675,2.3728,2.364,2.3923,2.393,2.3937,2.3983,2.3995,2.4006,0,0,0,0,0,2.3174,2.3264,2.3257,2.3279,2.3396,2.3485,2.35,2.3512,2.3479,2.3523,2.3551,2.3536,2.3711,2.3666,2.3687,2.3744,2.392,2.3928,2.3936,2.3977,2.3993,2.4006,0,0,0,0,0,0,2.321,2.3272,2.3264,2.3376,2.3426,2.3481,2.3537,2.3529,2.3588,2.3582,2.3595,2.3608,2.3708,2.3737,2.3685,2.3857,2.381,2.3823,2.3834,2.3849,2.3861,2.3851,2.3646,0,0,0,0,0,2.3231,2.3299,2.335,2.3443,2.3469,2.3499,2.3538,2.3544,2.3595,2.3615,2.3651,2.3701,2.3767,2.381,2.3874,2.3987,2.3999,2.4037,2.4049,2.4058,2.4068,2.4128,2.4145,2.3967,2.3967,2.3967,0,0,2.3275,2.3318,2.336,2.3452,2.3491,2.356,2.3516,2.3592,2.3643,2.3627,2.3721,2.375,2.3806,2.3912,2.3961,2.3939,2.412,2.4069,2.4076,2.4081,2.4138,2.4155,2.417,2.3972,2.3971,2.3971,0,0,2.339,2.343,2.3512,2.3551,2.3611,2.363,2.365,2.3706,2.3724,2.3819,2.3808,2.3869,2.3983,2.4023,2.4059,2.4188,2.4175,2.4209,2.4269,2.4327,2.4341,2.4353,2.4397,2.4413,2.4219,2.4219,2.4219,0,2.3437,2.3542,2.3554,2.3631,2.367,2.366,2.3741,2.3779,2.3856,2.3883,2.3858,2.4,2.4037,2.4151,2.4183,2.4213,2.4234,2.42,2.4338,2.4351,2.4362,2.4404,2.4421,2.4223,2.4222,2.4222,2.4222,0,2.3595,2.3668,2.3726,2.38,2.3847,2.3926,2.3949,2.3995,2.3997,2.4018,2.4115,2.4159,2.423,2.4259,2.4261,2.4373,2.4357,2.4335,2.4288,2.4383,2.4422,2.4438,2.4228,2.4226,2.4225,2.4224,0,0,2.3735,2.3815,2.3836,2.3869,2.3933,2.3989,2.4067,2.4136,2.4174,2.4228,2.4292,2.4388,2.4368,2.4408,2.4415,2.4467,2.4563,2.4438,2.4439,2.4457,2.4686,2.47,2.4718,2.4556,2.4559,2.4562,2.468,0,2.3854,2.399,2.4004,2.4126,2.4192,2.4183,2.425,2.4296,2.4319,2.4377,2.4402,2.4469,2.4438,2.4462,2.4513,2.454,2.4609,2.4533,2.4614,2.4616,2.4597,2.4739,2.4755,2.4864,2.4696,2.4699,2.4701,0,2.401,2.4068,2.4196,2.425,2.4278,2.4338,2.4402,2.4459,2.4511,2.4523,2.4568,2.4568,2.4646,2.4599,2.4706,2.4654,2.4688,2.4707,2.4711,2.4717,2.4662,2.4746,2.49,2.4915,2.4725,2.4723,2.4722,0,2.4095,2.4206,2.4296,2.4325,2.439,2.4432,2.4462,2.451,2.4551,2.4607,2.4633,2.4698,2.4733,2.4783,2.48,2.4764,2.4906,2.486,2.4916,2.4916,2.4945,2.4942,2.5103,2.4972,2.4971,2.4971,2.4971,0,2.4225,2.4303,2.4335,2.439,2.4477,2.4492,2.4577,2.4605,2.4648,2.4707,2.4705,2.476,2.478,2.484,2.4854,2.4939,2.4955,2.4966,2.4969,2.4965,2.4963,2.4986,2.4977,2.4975,2.4974,2.4974,2.4973,0,2.4334,2.4359,2.4456,2.451,2.4526,2.4587,2.4633,2.4686,2.4708,2.4783,2.4802,2.4836,2.4905,2.4927,2.5011,2.502,2.5119,2.5116,2.5101,2.5101,2.5155,2.5149,2.5334,2.5358,2.5213,2.5215,2.5216,0,2.4413,2.4473,2.4534,2.4573,2.4604,2.4669,2.471,2.4727,2.477,2.4833,2.4877,2.4946,2.5002,2.5112,2.5144,2.5208,2.5205,2.5265,2.5214,2.5208,2.5202,2.5197,2.5202,2.5274,2.5275,2.5276,2.5278,0,2.4551,2.456,2.4619,2.4683,2.4732,2.4784,2.4833,2.4866,2.489,2.4938,2.5008,2.5052,2.5137,2.5204,2.5269,2.5298,2.5291,2.5294,2.531,2.5305,2.5293,2.5297,2.5124,2.5289,2.5288,2.5287,2.5286,2.5286,2.4645,2.4697,2.4747,2.4813,2.4852,2.4898,2.495,2.4978,2.5038,2.5108,2.5115,2.519,2.524,2.5326,2.5359,2.5417,2.54,2.5424,2.5429,2.5434,2.5437,2.5286,2.543,2.5429,2.5429,2.5429,2.5429,0,2.478,2.4812,2.4873,2.4941,2.4993,2.4983,2.5037,2.5081,2.5147,2.5194,2.5249,2.5329,2.5394,2.5431,2.5496,2.5536,2.5534,2.5552,2.5548,2.5554,2.545,2.5428,2.5552,2.5552,2.5552,2.5552,2.5552,2.5552,2.4856,2.4942,2.4957,2.5062,2.5094,2.5168,2.5199,2.5241,2.5278,2.5368,2.5422,2.5446,2.5488,2.5556,2.5615,2.5624,2.5647,2.5666,2.5673,2.5575,2.5562,2.555,2.5529,2.5672,2.5672,2.5772,2.5773,2.5773]},{"header":{"parameterUnit":"m.s-1","parameterCategory":1,"la1":30.2991,"la2":30.254,"lo1":-89.0895,"lo2":-89.0444,"dy":0.0017,"dx":0.0017,"nx":28,"ny":28,"refTime":"2026-02-03T09:00:00:Z","depth":0,"parameterNumber":3,"parameterNumberName":"V-component_of_WINDS"},"data":[0,0,0,0,0,0,0,0,0,0,0,0,0,0,0,0,0,0,0,0,0,0,0,0,0,0,0,0,0,0,0,0,0,0,0,0,0,0,0,0,0,0,0,0,0,0,0,0,0,0,0,0,0,0,0,0,0,0,2.5302,2.5304,0,2.5433,2.5435,2.5436,2.5423,2.5421,2.5419,2.5417,2.5548,2.5553,2.5558,0,0,0,0,0,0,0,0,0,0,0,0,0,2.5037,2.5042,2.5302,2.5304,2.5306,2.5433,2.5435,2.5436,2.5423,2.5421,2.5418,2.5416,2.5546,2.5552,2.5559,0,0,0,0,0,0,0,0,0,0,0,0,0,2.5158,2.5044,2.5302,2.5314,2.5317,2.5433,2.5435,2.5437,2.5424,2.5421,2.5418,2.5415,2.5544,2.5552,2.556,2.5671,0,0,2.5584,2.5588,0,0,0,0,0,0,0,0,2.5151,2.5168,2.5311,2.5314,2.5317,2.5409,2.5389,2.5515,2.5425,2.5383,2.5417,2.5413,2.5504,2.5515,2.5546,2.5677,2.5682,2.5585,2.559,2.5593,2.5596,0,0,0,0,0,0,0,2.5143,2.5162,2.5354,2.5313,2.5317,2.5312,2.5326,2.5413,2.5459,2.5386,2.5386,2.5402,2.5505,2.5538,2.5549,2.5684,2.5585,2.5592,2.5597,2.56,2.591,2.5913,0,0,0,0,0,0,2.5132,2.5155,2.535,2.5358,2.5225,2.5319,2.5335,2.5382,2.5458,2.5467,2.5404,2.54,2.5526,2.554,2.5554,2.5687,2.5593,2.5601,2.5606,2.5907,2.5911,2.5915,0,0,0,0,0,0,2.5127,2.515,2.5345,2.5257,2.5281,2.5327,2.538,2.5386,2.542,2.5471,2.5479,2.543,2.5524,2.5542,2.5641,2.5692,2.5605,2.5612,2.5903,2.5908,2.5913,2.5956,0,0,0,0,0,0,2.5119,2.5148,2.5192,2.5258,2.5286,2.5432,2.5384,2.5391,2.5434,2.5431,2.5498,2.5506,2.5523,2.5629,2.5649,2.5701,2.5618,2.5899,2.5905,2.5911,2.5951,2.5962,2.5972,0,0,0,0,0,2.511,2.5198,2.5194,2.5217,2.5342,2.5435,2.5451,2.5469,2.5438,2.5482,2.5515,2.5504,2.5683,2.564,2.5662,2.5717,2.5895,2.5903,2.5911,2.5946,2.596,2.5972,0,0,0,0,0,0,2.5136,2.5207,2.5203,2.5316,2.537,2.5432,2.5488,2.5484,2.5547,2.5541,2.556,2.5575,2.5675,2.5706,2.5657,2.5827,2.5785,2.5797,2.5804,2.5818,2.5828,2.5818,2.5625,0,0,0,0,0,2.5155,2.5226,2.5284,2.5378,2.5405,2.5442,2.5483,2.5493,2.5548,2.5571,2.5611,2.5664,2.5732,2.5777,2.5842,2.5955,2.5968,2.6003,2.6014,2.6023,2.6033,2.6093,2.6109,2.594,2.594,2.594,0,0,2.5196,2.5243,2.5286,2.5384,2.5427,2.5498,2.5461,2.5538,2.5591,2.5582,2.5678,2.5709,2.577,2.5876,2.5924,2.5905,2.6083,2.6033,2.6039,2.6045,2.6103,2.6119,2.6133,2.5945,2.5944,2.5943,0,0,2.5305,2.5349,2.5431,2.5474,2.5539,2.5563,2.5583,2.5646,2.5666,2.5763,2.5758,2.5819,2.5937,2.598,2.6017,2.6141,2.6133,2.6162,2.6218,2.6276,2.629,2.6302,2.6344,2.636,2.6172,2.6172,2.6172,0,2.5346,2.5455,2.5474,2.5552,2.5594,2.559,2.5673,2.5713,2.5796,2.5825,2.5801,2.5947,2.5988,2.6103,2.6133,2.6164,2.6186,2.6154,2.6286,2.6299,2.631,2.6351,2.6367,2.6175,2.6175,2.6174,2.6174,0,2.5502,2.5577,2.5636,2.5716,2.5765,2.5845,2.5874,2.5921,2.5926,2.5952,2.6049,2.6098,2.6172,2.62,2.6206,2.6316,2.6301,2.6282,2.624,2.6329,2.6368,2.6384,2.6179,2.6178,2.6177,2.6177,0,0,2.5633,2.5722,2.5743,2.5778,2.5849,2.5907,2.5985,2.6059,2.6098,2.6155,2.622,2.6319,2.6301,2.6343,2.6353,2.6405,2.6498,2.6379,2.6381,2.6398,2.662,2.6634,2.6652,2.6493,2.6496,2.6498,2.6615,0,2.5749,2.5889,2.5908,2.6032,2.61,2.6096,2.6164,2.6214,2.624,2.63,2.6328,2.6397,2.6369,2.6394,2.6445,2.6476,2.6542,2.6468,2.6552,2.6555,2.6537,2.6672,2.6688,2.6795,2.663,2.6633,2.6635,0,2.5903,2.5964,2.6095,2.6155,2.6184,2.6245,2.6313,2.6372,2.6427,2.6442,2.6489,2.6492,2.6571,2.6526,2.6634,2.6583,2.6619,2.6639,2.6643,2.6652,2.66,2.6683,2.683,2.6846,2.6659,2.6657,2.6655,0,2.5984,2.6099,2.6192,2.6222,2.6295,2.6337,2.6369,2.6422,2.6464,2.6523,2.655,2.6618,2.6654,2.6705,2.6726,2.6691,2.6833,2.6789,2.6846,2.6846,2.6876,2.6874,2.7029,2.69,2.69,2.6899,2.6899,0,2.6111,2.6191,2.6229,2.6286,2.6375,2.6394,2.6481,2.6511,2.6557,2.6619,2.6619,2.6677,2.6701,2.6761,2.6778,2.6864,2.6881,2.6894,2.6897,2.6894,2.6892,2.6917,2.691,2.6904,2.6903,2.6902,2.6901,0,2.6216,2.6245,2.6346,2.6406,2.6422,2.6485,2.6536,2.659,2.6614,2.6692,2.6711,2.6749,2.6821,2.6846,2.6933,2.6943,2.7044,2.7041,2.7025,2.7026,2.7081,2.7075,2.7258,2.7282,2.7137,2.7138,2.714,0,2.6295,2.6357,2.6423,2.6465,2.6498,2.6565,2.6608,2.6629,2.6674,2.6741,2.6786,2.6858,2.6916,2.7029,2.7064,2.7129,2.7128,2.7187,2.7138,2.7132,2.7127,2.7123,2.7129,2.7196,2.7198,2.7199,2.72,0,2.6432,2.6443,2.6506,2.6574,2.6625,2.6679,2.6732,2.6765,2.6794,2.6844,2.6917,2.6962,2.705,2.712,2.7187,2.7218,2.7213,2.7215,2.7232,2.7229,2.7217,2.7223,2.705,2.7211,2.721,2.7209,2.7209,2.7208,2.6526,2.658,2.6635,2.6704,2.6746,2.6794,2.6848,2.6879,2.6941,2.7015,2.7023,2.7101,2.7153,2.7242,2.7276,2.7337,2.732,2.7344,2.735,2.7356,2.7359,2.7207,2.7349,2.7349,2.7349,2.7348,2.7348,0,2.6662,2.6697,2.6761,2.6834,2.6888,2.688,2.6937,2.6982,2.7051,2.7101,2.7158,2.7241,2.7308,2.7347,2.7414,2.7455,2.7455,2.7472,2.7469,2.7476,2.7371,2.735,2.7471,2.7471,2.7471,2.7471,2.7471,2.7471,2.6739,2.6829,2.6846,2.6956,2.699,2.7068,2.7101,2.7145,2.7184,2.7277,2.7333,2.7359,2.7403,2.7473,2.7534,2.7544,2.7568,2.7587,2.7595,2.7496,2.7483,2.7471,2.7451,2.7592,2.7592,2.7695,2.7696,2.7696]}]]